This demonstration page uses our WeatherBlox Daily Observations layout. Learn more.

Left ArrowRight Arrow

38.20091, -84.87328

Hourly Observations for July 18, 2015

Temp ( °F °C ) Dew Point ( °F °C ) Humidity (%) Winds ( mph kmh ) Pressure ( in mb ) Visibility ( mi km ) Precip ( " mm )
12:08 am 00:08 Cloudy with Thunderstorms 71 21.7 69 20.6 94 94 N 7 11 30.00 1016 5 8 0.04 1.02
12:24 am 00:24 Cloudy with Strong Thunderstorms 71 21.7 69 20.6 94 94 ENE 9 15 29.97 1015 3 4 0.16 4.06
12:35 am 00:35 Cloudy with Thunderstorms 71 21.7 69 20.6 94 94 VRB 3 6 29.97 1015 5 8 0.19 4.83
12:48 am 00:48 Cloudy with Rain 72 22 70 21 94 94 SSE 3 6 29.97 1015 6 10 0.21 5.33
12:53 am 00:53 Cloudy with Rain 71 21.7 69 20.6 94 94 VRB 3 6 29.97 1015 5 8 0.22 5.59
1:53 am 01:53 Partly Cloudy with Rain 71 21.7 69 20.6 94 94 S 8 13 29.92 1013 6 10 0.08 2.03
2:32 am 02:32 Partly Cloudy 71 21.7 69 20.6 94 94 SSW 10 17 29.94 1014 10 16 0.03 0.76
2:53 am 02:53 Clear 72 22.2 68 20 87 87 SSE 6 9 29.93 1014 10 16 0.03 0.76
3:53 am 03:53 Mostly Clear 70 21.1 68 20 93 93 Calm 29.93 1014 10 16 0.00 0.00
4:53 am 04:53 Cloudy 71 21.7 69 20.6 94 94 WSW 3 6 29.94 1014 10 16 0.00 0.00
5:53 am 05:53 Mostly Cloudy 70 21.1 68 20 93 93 SW 5 7 29.95 1014 10 16 0.00 0.00
6:53 am 06:53 Mostly Sunny 70 21.1 68 20 93 93 SW 6 9 29.94 1014 10 16 0.00 0.00
7:53 am 07:53 Sunny 73 22.8 70 21.1 90 90 SSW 5 7 29.95 1014 10 16 0.00 0.00
8:53 am 08:53 Sunny 77 25 72 22.2 85 85 SW 8 13 29.96 1015 10 16 0.00 0.00
9:53 am 09:53 Sunny 79 26.1 72 22.2 79 79 SSW 7 11 29.98 1015 9 14 0.00 0.00
10:53 am 10:53 Sunny 82 27.8 74 23.3 77 77 SSW 8 13 29.97 1015 9 14 0.00 0.00
11:53 am 11:53 Sunny 86 30 75 23.9 70 70 SW 9 15 29.98 1015 9 14 0.00 0.00
12:53 pm 12:53 Mostly Sunny 88 31.1 75 23.9 66 66 WSW 8 13 29.97 1015 9 14 0.00 0.00
1:53 pm 13:53 Partly Cloudy 90 32.2 76 24.4 63 63 WSW 7 11 29.98 1015 10 16 0.00 0.00
2:53 pm 14:53 Sunny 90 32.2 74 23.3 59 59 WSW 6 9 29.96 1015 10 16 0.00 0.00
3:53 pm 15:53 Mostly Sunny 90 32.2 75 23.9 62 62 WSW 9 15 29.93 1014 9 14 0.00 0.00
4:53 pm 16:53 Mostly Sunny 91 32.8 74 23.3 57 57 W 10 17 29.94 1014 9 14 0.00 0.00
5:53 pm 17:53 Sunny 89 31.7 74 23.3 61 61 SW 12 19 29.92 1013 9 14 0.00 0.00
6:53 pm 18:53 Mostly Sunny 89 31.7 75 23.9 63 63 WSW 12 19 29.91 1013 9 14 0.00 0.00
7:53 pm 19:53 Sunny 86 30 74 23.3 67 67 WSW 7 11 29.91 1013 8 13 0.00 0.00
8:53 pm 20:53 Sunny 84 28.9 74 23.3 72 72 WSW 5 7 29.91 1013 8 13 0.00 0.00
9:53 pm 21:53 Clear 83 28.3 74 23.3 74 74 SSW 3 6 29.95 1014 9 14 0.00 0.00
10:53 pm 22:53 Clear 82 27.8 75 23.9 79 79 SSW 3 6 29.96 1014 9 14 0.00 0.00
11:53 pm 23:53 Clear 81 27.2 75 23.9 82 82 Calm 29.96 1015 9 14 0.00 0.00

Powered by AerisWeather